Wind_Speed
22 24 26 29 31 32 34 35 36 37 38 39 39 38 37 37 37 36 36 36 35 32 30 30 30 29 26 24 22 21 20 19 19 19 19 18 17 17 17 18 17 17 17 17
20 23 26 28 30 33 35 36 38 39 40 41 41 40 38 38 39 39 39 37 34 33 34 33 32 30 28 25 24 23 23 22 21 21 21 20 19 18 17 17 17 17 17 18
18 21 24 26 28 30 33 35 37 39 39 40 41 40 37 38 39 39 39 36 34 34 35 33 32 32 29 27 26 26 25 24 23 23 22 21 20 18 18 17 18 18 19 19
15 18 21 23 26 29 31 33 35 37 38 38 39 40 34 35 36 36 35 33 31 30 31 32 32 31 30 28 27 28 28 27 26 25 23 22 21 20 19 18 18 19 20 21
11 14 17 20 23 26 27 28 30 32 33 33 33 35 31 32 32 32 32 32 30 27 28 30 30 30 30 30 30 29 29 28 27 24 23 22 20 20 19 19 20 21 22 23
13 17 20 22 24 27 28 29 29 29 29 28 26 28 28 28 28 28 29 29 29 27 26 27 29 30 31 32 32 31 29 27 26 23 21 21 21 21 21 21 22 23 24 24
16 21 25 28 30 30 31 32 33 32 28 25 23 23 25 24 24 24 24 25 25 25 25 26 28 28 31 33 34 31 27 26 23 21 20 20 20 21 21 22 23 24 25 25
21 24 29 31 33 34 34 34 34 33 30 26 22 22 22 21 21 21 21 21 22 23 24 25 26 26 27 28 28 27 24 22 20 18 18 19 20 21 22 23 23 24 24 23
28 29 31 34 35 37 37 36 34 34 32 29 25 23 24 23 20 19 20 20 20 21 22 24 24 24 22 21 20 20 18 16 15 16 18 19 21 22 22 22 22 21 21 21
33 35 36 37 38 39 40 38 34 32 31 29 26 24 24 23 21 19 18 19 19 20 21 23 22 21 19 17 16 14 12 14 15 17 19 20 21 21 21 20 20 19 19 19
37 38 38 38 39 39 37 34 32 30 29 27 26 24 21 19 18 17 19 19 19 18 20 20 20 18 16 14 13 13 14 15 17 18 20 20 21 21 20 20 20 19 19 19
37 38 36 34 33 31 26 25 25 26 26 25 24 23 18 14 14 14 15 15 16 14 14 15 15 13 12 12 12 14 15 17 18 19 20 21 22 22 21 21 20 20 21 20
37 36 32 27 24 20 17 16 16 18 20 21 18 18 16 14 11 10 10 10 10 10 10 11 11 11 10 11 14 16 17 18 19 20 21 22 23 22 21 21 21 21 21 21
35 31 28 24 18 14 9 7 8 10 12 12 12 11 10 9 9 8 8 8 8 8 9 10 12 13 13 14 16 17 18 19 21 22 22 23 23 22 20 19 20 20 20 20
31 27 23 19 14 9 4 1 2 5 6 6 6 6 6 5 5 5 5 6 7 7 8 10 12 13 13 14 16 18 19 20 22 22 22 23 22 21 19 18 19 19 19 19
29 25 22 18 13 8 6 6 7 8 9 7 5 3 1 1 2 1 1 2 4 6 7 9 11 12 13 13 15 17 17 19 21 22 22 20 20 18 17 17 18 18 19 19
28 25 21 16 12 11 10 10 11 12 12 10 9 8 7 6 4 3 1 1 2 4 5 7 8 9 9 11 12 14 15 16 18 19 19 18 18 17 16 17 19 19 20 20
28 25 21 17 14 13 12 11 12 12 13 13 12 11 10 7 5 4 3 3 2 2 2 1 2 4 6 8 9 10 12 13 15 16 17 18 18 18 18 19 19 20 20 20
28 24 21 19 16 16 13 13 13 13 13 13 11 10 9 8 6 5 4 4 4 3 3 3 3 3 4 5 7 9 11 13 14 16 17 18 18 19 19 19 19 20 20 20
27 24 22 20 18 16 14 13 13 13 12 10 9 9 8 6 5 5 5 5 5 4 4 4 4 5 6 8 9 11 13 14 16 17 18 19 19 19 20 19 19 19 19 20
23 22 21 20 18 17 15 13 12 11 10 9 8 8 7 6 6 6 6 5 5 5 6 6 7 8 9 11 12 13 15 16 17 18 18 19 19 19 19 19 19 19 19 19
21 20 19 18 17 16 14 12 11 10 9 8 8 7 7 7 7 6 6 5 5 6 7 8 9 11 12 13 14 15 16 17 18 18 19 19 18 18 18 18 18 18 18 19
21 18 16 15 15 14 12 10 9 8 7 7 6 6 7 6 5 5 5 5 6 7 8 10 12 13 14 15 15 16 17 17 18 18 18 18 17 17 17 17 17 17 18 18
20 18 15 13 12 11 10 9 9 7 6 5 5 6 5 5 4 4 4 5 6 8 9 11 13 15 15 15 16 16 17 17 17 17 16 16 16 16 16 16 17 17 17 17
21 17 15 13 11 9 8 7 6 5 4 4 4 4 3 3 3 3 3 5 7 8 10 12 14 15 15 16 16 17 17 17 16 16 15 15 14 14 15 15 15 15 16 16
23 19 15 12 10 7 5 4 2 2 2 2 2 2 2 2 2 2 3 5 7 9 12 13 14 15 16 16 17 17 17 17 16 15 14 14 13 13 13 13 13 14 14 14
Wind_Direction
250 254 257 260 262 263 264 266 267 268 268 268 268 269 270 272 273 275 275 277 277 279 279 282 284 284 282 282 281 279 276 273 271 271 271 271 272 273 274 277 277 272 273 276
259 261 263 266 267 268 269 270 270 270 270 270 270 269 270 273 273 273 274 274 273 276 278 278 279 280 278 278 279 277 276 274 273 273 274 274 274 273 273 274 276 274 274 275
265 265 267 268 269 269 269 270 270 270 270 271 271 269 268 268 269 270 271 270 270 273 273 273 274 274 274 273 274 274 274 274 272 272 272 274 275 274 273 274 275 276 275 275
267 269 270 271 271 270 270 271 272 273 273 273 272 271 267 266 265 266 267 266 269 269 266 265 268 265 265 265 265 266 268 270 270 272 273 275 276 276 276 275 275 276 277 277
287 285 283 281 280 280 280 280 280 281 281 280 277 275 270 266 263 262 262 261 262 262 261 261 259 257 255 254 254 255 259 263 265 269 273 276 276 278 278 279 279 280 280 279
302 296 294 292 291 291 290 289 288 288 288 286 281 277 272 265 262 259 258 258 256 255 253 253 252 249 247 247 249 251 253 256 259 264 270 274 275 277 279 280 281 282 282 280
307 305 301 298 297 295 294 294 293 290 289 287 282 275 271 265 260 257 254 251 248 246 246 247 245 243 244 243 244 246 249 251 255 262 269 272 275 277 279 281 281 282 281 280
304 305 301 298 296 293 292 290 288 287 286 283 276 272 271 264 256 254 248 242 239 238 240 238 235 236 240 239 240 243 246 251 257 263 268 271 274 277 279 281 282 282 280 279
304 300 297 294 293 290 287 284 281 278 279 277 274 268 265 263 258 251 247 241 238 237 237 234 232 232 231 235 237 240 245 254 262 265 268 272 275 278 280 281 281 281 280 278
306 303 299 294 290 285 283 279 272 268 268 269 269 265 265 261 259 258 253 248 245 240 235 230 228 221 220 220 227 234 245 255 261 266 270 274 278 280 281 281 282 282 282 280
311 308 305 300 295 289 283 274 265 260 256 259 261 263 268 263 258 261 255 250 246 244 236 232 229 227 220 213 221 233 243 255 263 270 275 279 282 282 280 281 282 284 283 282
317 314 311 308 303 297 287 274 260 252 249 251 257 259 268 271 263 267 262 259 254 254 247 245 240 233 215 215 227 235 245 256 264 272 277 282 285 285 283 282 283 285 283 281
324 321 318 313 307 301 291 271 260 250 245 245 251 254 263 277 273 275 276 270 265 260 257 253 255 245 237 234 234 242 251 259 268 274 278 283 284 282 281 281 283 285 284 282
332 330 330 329 326 322 313 276 253 238 232 234 237 245 265 279 279 282 281 273 271 268 256 254 257 248 245 247 246 250 257 264 272 277 278 281 282 276 276 279 284 286 286 284
343 344 345 347 349 352 355 43 173 178 182 181 197 230 263 284 270 270 272 266 260 261 264 262 260 253 255 257 257 260 263 268 274 278 279 280 280 279 278 283 287 288 288 288
354 359 1 1 8 27 48 77 107 133 139 141 144 148 157 132 145 218 237 250 267 261 263 266 267 266 265 265 267 271 273 274 275 278 281 286 292 289 290 296 294 294 293 290
5 8 11 17 32 49 66 79 89 110 119 120 120 116 115 111 117 117 97 2 303 277 273 270 273 278 274 273 274 276 276 278 281 284 291 297 301 300 299 300 298 296 294 291
17 22 30 40 46 57 73 77 92 106 112 115 118 119 114 111 100 92 80 52 14 326 328 305 288 287 284 281 285 281 285 287 288 291 294 297 299 301 301 300 299 296 295 294
28 36 43 44 47 62 73 82 91 98 105 116 114 114 109 104 92 87 77 62 54 47 42 36 15 348 327 310 301 296 295 296 297 297 298 299 301 302 301 300 299 297 296 296
35 45 48 48 54 63 71 84 93 100 104 113 109 109 106 104 98 94 82 67 56 48 39 22 3 346 332 322 316 309 305 303 303 303 303 302 302 303 302 301 301 300 299 298
38 44 49 52 56 63 75 86 95 100 101 103 104 110 110 108 109 98 80 62 45 31 18 6 354 343 335 328 322 316 312 309 307 306 305 305 304 304 303 302 302 301 300 299
36 42 46 50 53 60 71 77 87 93 91 94 96 103 109 111 109 93 72 57 39 25 10 357 347 340 335 332 327 322 318 314 311 308 307 306 305 304 303 303 303 301 301 301
32 35 41 48 52 56 64 72 79 84 89 91 90 101 114 110 105 86 66 47 28 15 1 351 345 341 338 336 332 328 324 320 316 312 310 308 307 307 306 305 305 303 303 303
29 31 37 44 48 55 64 71 75 82 82 91 99 107 113 106 101 84 55 33 18 8 358 351 346 343 342 341 340 337 333 329 324 319 314 311 310 310 310 309 308 307 307 308
24 25 29 36 43 48 54 64 73 78 78 87 97 105 117 113 105 78 44 23 12 4 357 352 349 348 348 347 346 343 339 335 331 326 322 320 318 317 317 316 315 314 315 314
22 22 22 24 26 29 34 42 60 75 80 96 91 96 118 138 119 63 26 14 7 1 357 356 355 354 353 352 350 348 346 344 342 339 335 333 331 330 328 326 325 324 324 325
Height
5862 5864 5863 5863 5863 5862 5862 5860 5860 5860 5859 5859 5858 5859 5860 5859 5858 5858 5857 5857 5857 5857 5857 5857 5857 5858 5860 5860 5860 5860 5860 5860 5859 5859 5858 5857 5857 5856 5855 5854 5853 5853 5852 5851
5859 5859 5858 5857 5856 5855 5854 5852 5851 5851 5849 5849 5849 5850 5851 5850 5849 5849 5849 5849 5849 5849 5850 5850 5851 5851 5853 5854 5854 5854 5854 5854 5853 5853 5853 5852 5852 5851 5850 5849 5848 5847 5847 5846
5854 5854 5852 5850 5849 5847 5845 5843 5842 5841 5840 5838 5838 5840 5842 5840 5838 5838 5839 5839 5840 5841 5842 5843 5843 5844 5846 5847 5847 5847 5847 5847 5847 5847 5847 5846 5846 5845 5845 5845 5844 5843 5842 5840
5849 5848 5846 5844 5842 5839 5837 5835 5833 5831 5830 5829 5828 5828 5832 5829 5828 5828 5828 5829 5831 5833 5834 5835 5836 5837 5838 5839 5840 5840 5840 5840 5841 5841 5841 5841 5840 5840 5840 5839 5838 5837 5836 5835
5846 5843 5841 5838 5836 5833 5830 5828 5825 5823 5821 5820 5819 5817 5821 5818 5818 5818 5819 5820 5822 5824 5825 5826 5827 5829 5830 5831 5832 5833 5833 5833 5834 5834 5835 5835 5834 5834 5834 5833 5832 5831 5830 5828
5842 5839 5835 5832 5829 5826 5822 5820 5817 5815 5813 5813 5811 5810 5809 5808 5808 5809 5810 5812 5814 5815 5817 5818 5819 5820 5822 5823 5825 5825 5825 5827 5828 5829 5829 5829 5829 5829 5828 5827 5826 5825 5823 5822
5838 5834 5829 5824 5820 5817 5814 5811 5808 5806 5806 5806 5804 5803 5802 5801 5801 5802 5803 5804 5806 5808 5809 5810 5811 5812 5813 5815 5817 5818 5819 5821 5823 5824 5824 5825 5824 5824 5823 5822 5820 5819 5817 5815
5833 5829 5822 5815 5811 5807 5805 5802 5800 5798 5797 5798 5798 5796 5796 5794 5794 5795 5796 5797 5798 5800 5802 5802 5803 5804 5805 5808 5810 5812 5814 5816 5818 5819 5820 5820 5819 5819 5818 5816 5815 5813 5811 5809
5824 5820 5814 5807 5801 5796 5793 5790 5789 5789 5788 5789 5790 5791 5789 5788 5789 5790 5790 5791 5792 5794 5796 5797 5797 5798 5799 5802 5805 5808 5810 5813 5814 5815 5815 5814 5814 5813 5812 5810 5809 5807 5805 5803
5814 5808 5803 5796 5791 5784 5780 5778 5779 5779 5780 5781 5783 5784 5783 5783 5783 5784 5785 5786 5787 5788 5789 5791 5791 5791 5794 5798 5802 5804 5807 5808 5809 5809 5809 5808 5808 5807 5806 5805 5803 5801 5800 5798
5804 5797 5790 5782 5775 5771 5768 5765 5766 5768 5771 5774 5776 5779 5778 5778 5779 5779 5780 5782 5783 5784 5785 5786 5787 5788 5791 5795 5799 5801 5802 5803 5803 5803 5802 5802 5801 5800 5800 5798 5797 5796 5794 5792
5794 5786 5778 5770 5762 5757 5756 5755 5757 5761 5764 5767 5770 5776 5773 5774 5775 5776 5777 5778 5779 5780 5781 5782 5785 5786 5789 5793 5795 5797 5797 5797 5797 5797 5796 5796 5795 5794 5793 5792 5790 5789 5788 5786
5785 5776 5769 5763 5758 5752 5750 5749 5751 5755 5758 5762 5766 5771 5769 5771 5772 5773 5775 5776 5777 5777 5778 5780 5783 5785 5787 5789 5791 5792 5792 5792 5791 5791 5790 5789 5788 5787 5786 5785 5784 5783 5782 5780
5778 5768 5761 5755 5750 5747 5746 5747 5748 5752 5755 5758 5762 5765 5767 5769 5770 5771 5772 5773 5773 5774 5776 5778 5780 5782 5784 5786 5787 5787 5788 5787 5785 5784 5783 5782 5781 5779 5779 5778 5778 5777 5776 5774
5774 5766 5758 5752 5748 5746 5746 5746 5748 5751 5754 5758 5760 5763 5766 5767 5769 5769 5770 5771 5772 5772 5774 5775 5777 5778 5779 5781 5782 5782 5782 5782 5780 5778 5777 5775 5774 5773 5773 5772 5771 5770 5770 5769
5771 5764 5757 5753 5750 5748 5748 5748 5749 5752 5755 5758 5761 5764 5765 5767 5768 5769 5769 5770 5771 5772 5772 5773 5774 5774 5775 5776 5776 5776 5776 5776 5775 5773 5770 5769 5768 5767 5767 5766 5765 5764 5763 5763
5769 5763 5758 5755 5753 5752 5752 5752 5752 5754 5757 5760 5762 5765 5766 5767 5769 5770 5770 5770 5771 5771 5771 5772 5772 5772 5772 5772 5772 5772 5772 5771 5770 5768 5766 5765 5763 5763 5762 5761 5760 5758 5757 5756
5770 5765 5761 5759 5759 5757 5758 5756 5757 5758 5760 5762 5764 5766 5767 5769 5770 5771 5771 5771 5771 5772 5771 5771 5771 5771 5771 5770 5769 5769 5769 5768 5767 5765 5764 5762 5760 5759 5757 5756 5754 5753 5751 5750
5773 5769 5766 5764 5762 5761 5761 5761 5761 5763 5764 5766 5767 5769 5770 5771 5772 5772 5773 5773 5773 5773 5772 5772 5771 5771 5770 5770 5769 5768 5767 5765 5764 5762 5760 5758 5756 5754 5753 5751 5749 5747 5745 5744
5779 5775 5772 5770 5768 5766 5767 5766 5766 5768 5769 5769 5770 5771 5772 5773 5774 5774 5774 5774 5774 5774 5774 5773 5772 5771 5770 5769 5768 5766 5764 5763 5761 5758 5756 5754 5752 5750 5748 5746 5743 5741 5740 5738
5785 5781 5778 5775 5773 5771 5771 5770 5771 5773 5774 5773 5773 5773 5774 5774 5775 5776 5776 5775 5775 5775 5774 5773 5772 5771 5769 5768 5766 5764 5762 5759 5757 5755 5752 5750 5748 5745 5743 5741 5738 5736 5734 5732
5790 5786 5782 5780 5778 5778 5775 5774 5775 5775 5774 5775 5775 5775 5776 5777 5777 5777 5777 5777 5776 5775 5775 5774 5772 5770 5768 5766 5763 5761 5758 5756 5753 5751 5748 5746 5743 5741 5738 5736 5734 5731 5729 5727
5794 5790 5786 5784 5783 5780 5778 5777 5777 5777 5777 5777 5777 5777 5778 5778 5778 5778 5778 5778 5777 5776 5775 5773 5771 5769 5767 5764 5761 5758 5755 5752 5749 5747 5744 5741 5739 5736 5734 5731 5729 5727 5724 5722
5797 5793 5789 5786 5784 5782 5781 5780 5779 5779 5779 5778 5778 5779 5779 5779 5779 5779 5779 5778 5778 5776 5775 5773 5770 5768 5765 5762 5759 5756 5752 5749 5746 5743 5740 5738 5735 5732 5730 5727 5725 5722 5720 5717
5800 5795 5792 5789 5787 5784 5783 5782 5781 5780 5780 5780 5780 5780 5780 5780 5780 5780 5780 5779 5778 5776 5775 5772 5770 5767 5764 5761 5757 5754 5750 5747 5743 5740 5737 5734 5731 5729 5726 5723 5721 5718 5716 5713
5802 5798 5794 5791 5788 5786 5784 5783 5781 5781 5780 5780 5780 5780 5780 5780 5780 5780 5780 5779 5778 5776 5774 5772 5769 5766 5763 5760 5756 5752 5749 5745 5741 5738 5734 5731 5728 5726 5723 5720 5718 5715 5713 5710